When you browse on this site, cookies collect data to enhance your experience and personalize the content and advertising you see.
Visit our Privacy Policy to learn more. By continuing to use the site, you agree to this use of cookies and data.

Hourly Weather Hakodate

Today, 5 August, Wednesday

Time Temperature Precipitation Wind Pressure Humidity
00:00 +25°C° 0.6 mm 5 mps 756 mmHg 97%
01:00 +25°C° 0.2 mm 5 mps 756 mmHg 97%
02:00 +25°C° 0.2 mm 5 mps 756 mmHg 97%
03:00 +25°C° 0 mm 4 mps 756 mmHg 96%
04:00 +25°C° 0.1 mm 4 mps 757 mmHg 96%
05:00 +25°C° 0.1 mm 4 mps 757 mmHg 96%
06:00 +25°C° 0.1 mm 4 mps 757 mmHg 95%
07:00 +26°C° 0 mm 4 mps 757 mmHg 89%
08:00 +27°C° 0 mm 5 mps 757 mmHg 84%
09:00 +29°C° 0 mm 5 mps 757 mmHg 78%
10:00 +29°C° 0 mm 5 mps 757 mmHg 75%
11:00 +30°C° 0 mm 5 mps 757 mmHg 71%
12:00 +30°C° 0 mm 6 mps 757 mmHg 68%
13:00 +29°C° 0.4 mm 6 mps 756 mmHg 75%
14:00 +28°C° 0.4 mm 7 mps 756 mmHg 82%
15:00 +27°C° 0.4 mm 7 mps 756 mmHg 89%
16:00 +27°C° 0.4 mm 7 mps 756 mmHg 91%
17:00 +26°C° 0.4 mm 6 mps 756 mmHg 93%
18:00 +25°C° 0.4 mm 5 mps 757 mmHg 95%
19:00 +25°C° 0.2 mm 5 mps 757 mmHg 96%
20:00 +25°C° 0.2 mm 4 mps 757 mmHg 96%
21:00 +23°C° 0.2 mm 4 mps 756 mmHg 96%
22:00 +25°C° 0.2 mm 4 mps 757 mmHg 96%
23:00 +25°C° 0.2 mm 4 mps 757 mmHg 97%

Tomorrow, 6 August, Thursday

Time Temperature Precipitation Wind Pressure Humidity
00:00 +25°C° 0.2 mm 4 mps 757 mmHg 97%
01:00 +25°C° 0.2 mm 3 mps 756 mmHg 97%
02:00 +24°C° 0.2 mm 3 mps 756 mmHg 96%
03:00 +24°C° 0.2 mm 3 mps 756 mmHg 95%
04:00 +24°C° 0.8 mm 3 mps 756 mmHg 96%
05:00 +24°C° 0.8 mm 3 mps 756 mmHg 96%
06:00 +24°C° 0.8 mm 3 mps 756 mmHg 97%
07:00 +24°C° 0.9 mm 3 mps 756 mmHg 97%
08:00 +24°C° 0.9 mm 3 mps 755 mmHg 98%
09:00 +24°C° 0.9 mm 3 mps 755 mmHg 98%
10:00 +24°C° 1 mm 3 mps 755 mmHg 98%
11:00 +25°C° 1 mm 4 mps 755 mmHg 97%
12:00 +25°C° 1 mm 4 mps 755 mmHg 97%
13:00 +25°C° 0.5 mm 4 mps 755 mmHg 94%
14:00 +26°C° 0.5 mm 4 mps 754 mmHg 91%
15:00 +27°C° 0.5 mm 4 mps 754 mmHg 88%
16:00 +27°C° 0 mm 3 mps 754 mmHg 89%
17:00 +27°C° 0 mm 2 mps 754 mmHg 90%
18:00 +26°C° 0 mm 1 mps 754 mmHg 91%
19:00 +26°C° 0 mm 1 mps 754 mmHg 92%
20:00 +25°C° 0 mm 2 mps 753 mmHg 94%
21:00 +24°C° 0 mm 2 mps 753 mmHg 95%
22:00 +24°C° 0 mm 2 mps 753 mmHg 95%
23:00 +24°C° 0 mm 2 mps 752 mmHg 94%

Day after tomorrow, 7 August, Friday

Time Temperature Precipitation Wind Pressure Humidity
00:00 +24°C° 0 mm 2 mps 752 mmHg 93%
01:00 +24°C° 0 mm 2 mps 751 mmHg 93%
02:00 +24°C° 0 mm 3 mps 750 mmHg 92%
03:00 +24°C° 0 mm 3 mps 749 mmHg 92%
04:00 +23°C° 0.3 mm 5 mps 749 mmHg 93%
05:00 +24°C° 0.3 mm 8 mps 749 mmHg 94%
06:00 +24°C° 0.3 mm 10 mps 748 mmHg 95%
07:00 +24°C° 0.1 mm 12 mps 748 mmHg 91%
08:00 +24°C° 0.1 mm 13 mps 748 mmHg 88%
09:00 +24°C° 0.1 mm 14 mps 748 mmHg 84%
10:00 +24°C° 0.1 mm 13 mps 749 mmHg 82%
11:00 +24°C° 0.1 mm 13 mps 749 mmHg 80%
12:00 +24°C° 0.1 mm 12 mps 750 mmHg 77%
13:00 +24°C° 0 mm 11 mps 750 mmHg 76%
14:00 +26°C° 0 mm 10 mps 750 mmHg 75%
15:00 +26°C° 0 mm 10 mps 750 mmHg 74%
16:00 +24°C° 0 mm 9 mps 751 mmHg 76%
17:00 +23°C° 0 mm 8 mps 751 mmHg 77%
18:00 +23°C° 0 mm 7 mps 752 mmHg 79%
19:00 +22°C° 0 mm 6 mps 752 mmHg 79%
20:00 +22°C° 0 mm 5 mps 752 mmHg 80%
21:00 +21°C° 0 mm 4 mps 752 mmHg 80%
22:00 +21°C° 0 mm 3 mps 752 mmHg 82%
23:00 +21°C° 0 mm 3 mps 752 mmHg 83%

8 August, Saturday

Time Temperature Precipitation Wind Pressure Humidity
00:00 +20°C° 0 mm 2 mps 752 mmHg 85%
01:00 +20°C° 0 mm 2 mps 752 mmHg 85%
02:00 +20°C° 0 mm 2 mps 752 mmHg 86%
03:00 +20°C° 0 mm 2 mps 752 mmHg 86%
04:00 +20°C° 0 mm 2 mps 752 mmHg 85%
05:00 +20°C° 0 mm 2 mps 752 mmHg 84%
06:00 +21°C° 0 mm 2 mps 753 mmHg 83%
07:00 +23°C° 0 mm 2 mps 753 mmHg 77%
08:00 +25°C° 0 mm 2 mps 753 mmHg 72%
09:00 +26°C° 0 mm 2 mps 753 mmHg 66%
10:00 +27°C° 0 mm 2 mps 753 mmHg 66%
11:00 +27°C° 0 mm 2 mps 753 mmHg 67%
12:00 +27°C° 0 mm 3 mps 753 mmHg 68%
13:00 +27°C° 0 mm 3 mps 753 mmHg 69%
14:00 +27°C° 0 mm 2 mps 752 mmHg 71%
15:00 +26°C° 0 mm 2 mps 752 mmHg 72%
16:00 +26°C° 0 mm 2 mps 752 mmHg 76%
17:00 +25°C° 0 mm 3 mps 753 mmHg 81%
18:00 +24°C° 0 mm 3 mps 753 mmHg 85%
19:00 +22°C° 0 mm 3 mps 753 mmHg 87%
20:00 +21°C° 0 mm 3 mps 753 mmHg 89%
21:00 +20°C° 0 mm 3 mps 753 mmHg 91%
22:00 +20°C° 0 mm 3 mps 753 mmHg 91%
23:00 +20°C° 0 mm 3 mps 753 mmHg 91%

9 August, Sunday

Time Temperature Precipitation Wind Pressure Humidity
00:00 +19°C° 0 mm 3 mps 753 mmHg 91%
01:00 +19°C° 0 mm 4 mps 753 mmHg 92%
02:00 +19°C° 0 mm 4 mps 753 mmHg 92%
03:00 +19°C° 0 mm 4 mps 753 mmHg 93%
04:00 +20°C° 0 mm 5 mps 753 mmHg 92%
05:00 +20°C° 0 mm 5 mps 753 mmHg 92%
06:00 +21°C° 0 mm 5 mps 753 mmHg 92%
07:00 +22°C° 0.1 mm 5 mps 753 mmHg 90%
08:00 +22°C° 0.1 mm 6 mps 753 mmHg 88%
09:00 +23°C° 0.1 mm 6 mps 753 mmHg 86%
10:00 +23°C° 0 mm 6 mps 753 mmHg 86%
11:00 +23°C° 0 mm 5 mps 753 mmHg 86%
12:00 +23°C° 0 mm 5 mps 752 mmHg 86%
13:00 +23°C° 0.1 mm 5 mps 752 mmHg 87%
14:00 +22°C° 0.1 mm 5 mps 752 mmHg 89%
15:00 +22°C° 0.1 mm 4 mps 752 mmHg 90%
16:00 +22°C° 0 mm 4 mps 752 mmHg 91%
17:00 +22°C° 0 mm 4 mps 752 mmHg 91%
18:00 +22°C° 0 mm 4 mps 752 mmHg 92%
19:00 +22°C° 0 mm 4 mps 752 mmHg 93%
20:00 +21°C° 0 mm 4 mps 753 mmHg 94%
21:00 +21°C° 0 mm 4 mps 753 mmHg 95%
22:00 +21°C° 0 mm 4 mps 753 mmHg 95%
23:00 +21°C° 0 mm 3 mps 753 mmHg 95%

10 August, Monday

Time Temperature Precipitation Wind Pressure Humidity
00:00 +21°C° 0 mm 3 mps 753 mmHg 96%
01:00 +21°C° 0.1 mm 3 mps 753 mmHg 96%
02:00 +21°C° 0.1 mm 3 mps 753 mmHg 96%
03:00 +21°C° 0.1 mm 3 mps 753 mmHg 96%
04:00 +21°C° 1.8 mm 2 mps 753 mmHg 97%
05:00 +21°C° 1.8 mm 2 mps 753 mmHg 98%
06:00 +21°C° 1.8 mm 2 mps 753 mmHg 98%
07:00 +21°C° 4.8 mm 3 mps 753 mmHg 98%
08:00 +22°C° 4.8 mm 3 mps 754 mmHg 98%
09:00 +22°C° 4.8 mm 3 mps 754 mmHg 99%
10:00 +22°C° 2 mm 3 mps 753 mmHg 98%
11:00 +24°C° 2 mm 3 mps 753 mmHg 98%
12:00 +23°C° 2 mm 4 mps 753 mmHg 98%
13:00 +25°C° 1.8 mm 5 mps 752 mmHg 98%
14:00 +24°C° 1.8 mm 6 mps 752 mmHg 98%
15:00 +24°C° 1.8 mm 7 mps 752 mmHg 98%
16:00 +26°C° 0.5 mm 7 mps 752 mmHg 97%
17:00 +26°C° 0.5 mm 7 mps 752 mmHg 97%
18:00 +26°C° 0.5 mm 8 mps 752 mmHg 97%
19:00 +26°C° 0.1 mm 7 mps 752 mmHg 96%
20:00 +24°C° 0.1 mm 7 mps 753 mmHg 96%
21:00 +24°C° 0.1 mm 6 mps 753 mmHg 96%
22:00 +24°C° 0.1 mm 7 mps 753 mmHg 96%
23:00 +24°C° 0.1 mm 7 mps 753 mmHg 96%
Show more